Ravensworth, United Kingdom

10:37 PM GMT on January 16, 2017 (GMT +0000)
Teesside

Weather History for EGNV - May, 2013

Change the Weather History Date:

Friday, May 31, 2013

  Actual Average Record
Temperature  
Mean Temperature 60 °F -  
Max Temperature 71 °F 63 °F 77 °F (2003)
Min Temperature 48 °F 47 °F 39 °F (2000)
Degree Days  
Heating Degree Days 6    
Growing Degree Days 10 (Base 50)    
Moisture  
Dew Point 52 °F    
Average Humidity 70    
Maximum Humidity 94    
Minimum Humidity 46    
Precipitation  
Precipitation 0.00 in - - ()
Sea Level Pressure  
Sea Level Pressure 30.07 in    
Wind  
Wind Speed 4 mph ()    
Max Wind Speed 10 mph    
Max Gust Speed -    
Visibility 5.6 miles    
Events Fog    
Averages and records for this station are not official NWS values.
T = Trace of Precipitation, MM = Missing Value Source: Averaged Metar Reports

Daily Weather History Graph

Daily Weather History Graph

Search for Another Location

Airport or City:

Trip Planner

Search our weather history database for the weather conditions in past years. The results will help you decide how hot, cold, wet, or windy it might be!

Date:

Astronomy

May. 31, 2013 Rise Set
Actual Time 4:38 AM BST 9:29 PM BST
Civil Twilight 3:45 AM BST 10:22 PM BST
Nautical Twilight 2:15 AM BST 11:53 PM BST
Astronomical Twilight Sun does not rise Sun does not rise
Moon 1:10 AM BST (5/31) 12:27 PM BST (5/31)
Length of Visible Light 18h 36m
Length of Day
16h 51m
Waning Gibbous, 54% of the Moon is Illuminated
May 31
Waning Gibbous
May 31
Last Quarter
Jun 8
New
Jun 16
First Quarter
Jun 23
Full

Hourly Weather History & Observations

Time (BST) Temp. Dew Point Humidity Pressure Visibility Wind Dir Wind Speed Gust Speed Precip Events Conditions
5:50 AM 48.2 °F 46.4 °F 93% 30.09 in 2.5 mi Calm Calm - N/A Fog Fog
6:20 AM 50.0 °F 48.2 °F 94% 30.09 in 2.8 mi Calm Calm - N/A   Haze
6:50 AM 51.8 °F 48.2 °F 88% 30.09 in 3.1 mi Calm Calm - N/A   Haze
7:20 AM 51.8 °F 46.4 °F 82% 30.09 in 5.0 mi West 4.6 mph - N/A   Partly Cloudy
7:50 AM 53.6 °F 48.2 °F 82% 30.09 in 5.6 mi Variable 3.5 mph - N/A   Partly Cloudy
8:20 AM 55.4 °F 48.2 °F 77% 30.09 in 5.6 mi Variable 2.3 mph - N/A   Partly Cloudy
8:50 AM 59.0 °F 50.0 °F 72% 30.09 in 6.2 mi Variable 2.3 mph - N/A   Partly Cloudy
9:20 AM 59.0 °F 51.8 °F 77% 30.09 in 6.2 mi Variable 3.5 mph - N/A   Partly Cloudy
9:50 AM 60.8 °F 51.8 °F 72% 30.06 in 6.2 mi Variable 2.3 mph - N/A   Partly Cloudy
10:20 AM 62.6 °F 53.6 °F 72% 30.06 in 6.2 mi Variable 2.3 mph - N/A   Partly Cloudy
10:50 AM 64.4 °F 53.6 °F 68% 30.06 in 6.2 mi Variable 2.3 mph - N/A   Partly Cloudy
11:20 AM 66.2 °F 53.6 °F 64% 30.06 in 6.2 mi Variable 2.3 mph - N/A   Partly Cloudy
11:50 AM 68.0 °F 53.6 °F 60% 30.06 in 6.2 mi Variable 2.3 mph - N/A   Scattered Clouds
12:20 PM 68.0 °F 51.8 °F 56% 30.06 in 6.2 mi NNW 6.9 mph - N/A   Scattered Clouds
12:50 PM 69.8 °F 51.8 °F 53% 30.06 in 6.2 mi North 9.2 mph - N/A   Scattered Clouds
1:20 PM 69.8 °F 50.0 °F 49% 30.06 in 6.2 mi NNW 10.4 mph - N/A   Partly Cloudy
1:50 PM 71.6 °F 50.0 °F 46% 30.06 in 6.2 mi North 8.1 mph - N/A   Scattered Clouds
2:20 PM 68.0 °F 55.4 °F 64% 30.06 in 6.2 mi NE 10.4 mph - N/A   Scattered Clouds
2:50 PM 64.4 °F 55.4 °F 73% 30.06 in 6.2 mi NE 10.4 mph - N/A   Scattered Clouds
3:20 PM 64.4 °F 53.6 °F 68% 30.06 in 6.2 mi NE 6.9 mph - N/A   Scattered Clouds
3:50 PM 64.4 °F 55.4 °F 73% 30.06 in 6.2 mi NE 10.4 mph - N/A   Scattered Clouds
4:20 PM 64.4 °F 53.6 °F 68% 30.06 in 6.2 mi NE 8.1 mph - N/A   Scattered Clouds
4:50 PM 66.2 °F 53.6 °F 64% 30.06 in 5.6 mi NE 9.2 mph - N/A   Scattered Clouds
5:20 PM 66.2 °F 53.6 °F 64% 30.06 in 5.0 mi NE 6.9 mph - N/A   Partly Cloudy
5:50 PM 66.2 °F 53.6 °F 64% 30.06 in 5.0 mi NE 5.8 mph - N/A   Partly Cloudy
6:20 PM 66.2 °F 53.6 °F 64% 30.06 in 5.0 mi NE 5.8 mph - N/A   Partly Cloudy
6:50 PM 64.4 °F 53.6 °F 68% 30.06 in 5.0 mi North 8.1 mph - N/A   Partly Cloudy
7:20 PM 62.6 °F 51.8 °F 68% 30.06 in 5.6 mi ENE 6.9 mph - N/A   Partly Cloudy
7:50 PM 60.8 °F 51.8 °F 72% 30.06 in 5.6 mi NE 6.9 mph - N/A   Partly Cloudy
8:20 PM 60.8 °F 51.8 °F 72% 30.09 in 5.6 mi NNE 5.8 mph - N/A   Partly Cloudy
8:50 PM 60.8 °F 51.8 °F 72% 30.09 in 5.6 mi NW 5.8 mph - N/A   Partly Cloudy
9:20 PM 59.0 °F 50.0 °F 72% 30.09 in 6.2 mi WNW 10.4 mph - N/A   Scattered Clouds
9:50 PM 59.0 °F 50.0 °F 72% 30.12 in 6.2 mi WNW 10.4 mph - N/A   Scattered Clouds